When you browse on this site, cookies collect data to enhance your experience and personalize the content and advertising you see.
Visit our Privacy Policy to learn more. By continuing to use the site, you agree to this use of cookies and data.
  • In United Kingdom
  • List of Countries
  • For 7 days
  • Water Temperature
  • Satellite Maps
  • Weather Map
  • Weather Widgets
  • user-avatar
    Login

    Hourly Weather Pitushkiv

    Today, 25 June, Tuesday

    Time Temperature Precipitation Wind Pressure Humidity
    00:00 +19°C° 0 mm 3 mps 749 mmHg 94%
    01:00 +18°C° 0 mm 3 mps 749 mmHg 94%
    02:00 +18°C° 0 mm 3 mps 750 mmHg 95%
    03:00 +17°C° 0 mm 3 mps 750 mmHg 94%
    04:00 +17°C° 0 mm 3 mps 750 mmHg 94%
    05:00 +17°C° 0 mm 3 mps 750 mmHg 94%
    06:00 +18°C° 0 mm 3 mps 750 mmHg 91%
    07:00 +19°C° 0 mm 3 mps 750 mmHg 87%
    08:00 +20°C° 0 mm 3 mps 751 mmHg 84%
    09:00 +21°C° 0 mm 3 mps 751 mmHg 78%
    10:00 +22°C° 0 mm 3 mps 751 mmHg 72%
    11:00 +25°C° 0 mm 3 mps 751 mmHg 66%
    12:00 +25°C° 0 mm 3 mps 751 mmHg 64%
    13:00 +26°C° 0 mm 3 mps 751 mmHg 62%
    14:00 +27°C° 0 mm 3 mps 751 mmHg 59%
    15:00 +27°C° 0 mm 3 mps 751 mmHg 60%
    16:00 +27°C° 0 mm 2 mps 751 mmHg 61%
    17:00 +27°C° 0 mm 2 mps 750 mmHg 61%
    18:00 +25°C° 0 mm 2 mps 750 mmHg 67%
    19:00 +24°C° 0 mm 2 mps 751 mmHg 73%
    20:00 +22°C° 0 mm 1 mps 751 mmHg 79%
    21:00 +21°C° 0 mm 1 mps 751 mmHg 81%
    22:00 +19°C° 0 mm 2 mps 751 mmHg 82%
    23:00 +18°C° 0 mm 2 mps 751 mmHg 84%

    Tomorrow, 26 June, Wednesday

    Time Temperature Precipitation Wind Pressure Humidity
    00:00 +19°C° 0 mm 1 mps 751 mmHg 85%
    01:00 +18°C° 0 mm 1 mps 751 mmHg 85%
    02:00 +16°C° 0 mm 1 mps 751 mmHg 86%
    03:00 +16°C° 0 mm 1 mps 751 mmHg 87%
    04:00 +16°C° 0 mm 1 mps 750 mmHg 88%
    05:00 +16°C° 0 mm 2 mps 750 mmHg 89%
    06:00 +18°C° 0 mm 2 mps 750 mmHg 86%
    07:00 +20°C° 0 mm 2 mps 750 mmHg 83%
    08:00 +21°C° 0 mm 3 mps 750 mmHg 81%
    09:00 +24°C° 0 mm 3 mps 750 mmHg 76%
    10:00 +25°C° 0 mm 3 mps 750 mmHg 71%
    11:00 +26°C° 0 mm 3 mps 750 mmHg 66%
    12:00 +27°C° 0 mm 3 mps 749 mmHg 65%
    13:00 +27°C° 0 mm 3 mps 749 mmHg 65%
    14:00 +28°C° 0 mm 3 mps 749 mmHg 64%
    15:00 +28°C° 0 mm 3 mps 748 mmHg 66%
    16:00 +28°C° 0 mm 3 mps 747 mmHg 68%
    17:00 +28°C° 0 mm 3 mps 747 mmHg 70%
    18:00 +26°C° 0 mm 3 mps 746 mmHg 76%
    19:00 +25°C° 0 mm 3 mps 746 mmHg 81%
    20:00 +24°C° 0 mm 3 mps 745 mmHg 87%
    21:00 +22°C° 0 mm 3 mps 745 mmHg 88%
    22:00 +21°C° 0 mm 4 mps 745 mmHg 90%
    23:00 +20°C° 0 mm 4 mps 744 mmHg 91%

    Day after tomorrow, 27 June, Thursday

    Time Temperature Precipitation Wind Pressure Humidity
    00:00 +20°C° 0 mm 4 mps 744 mmHg 88%
    01:00 +20°C° 0 mm 4 mps 743 mmHg 85%
    02:00 +20°C° 0 mm 4 mps 743 mmHg 83%
    03:00 +20°C° 0 mm 5 mps 742 mmHg 85%
    04:00 +20°C° 0 mm 5 mps 741 mmHg 87%
    05:00 +21°C° 0 mm 5 mps 740 mmHg 89%
    06:00 +21°C° 0.8 mm 5 mps 740 mmHg 89%
    07:00 +22°C° 0.8 mm 6 mps 740 mmHg 90%
    08:00 +23°C° 0.8 mm 6 mps 740 mmHg 91%
    09:00 +24°C° 0.2 mm 7 mps 739 mmHg 85%
    10:00 +26°C° 0.2 mm 8 mps 739 mmHg 79%
    11:00 +27°C° 0.2 mm 9 mps 739 mmHg 74%
    12:00 +27°C° 0.1 mm 9 mps 739 mmHg 73%
    13:00 +26°C° 0.1 mm 9 mps 739 mmHg 72%
    14:00 +24°C° 0.1 mm 9 mps 739 mmHg 71%
    15:00 +24°C° 0.1 mm 9 mps 739 mmHg 72%
    16:00 +23°C° 0.1 mm 9 mps 738 mmHg 74%
    17:00 +22°C° 0.1 mm 8 mps 738 mmHg 75%
    18:00 +21°C° 0 mm 7 mps 738 mmHg 77%
    19:00 +20°C° 0 mm 6 mps 738 mmHg 80%
    20:00 +19°C° 0 mm 5 mps 738 mmHg 82%
    21:00 +17°C° 0 mm 5 mps 738 mmHg 83%
    22:00 +16°C° 0 mm 5 mps 739 mmHg 85%
    23:00 +17°C° 0 mm 4 mps 739 mmHg 87%

    28 June, Friday

    Time Temperature Precipitation Wind Pressure Humidity
    00:00 +15°C° 0 mm 4 mps 739 mmHg 88%
    01:00 +14°C° 0 mm 4 mps 739 mmHg 90%
    02:00 +13°C° 0 mm 4 mps 739 mmHg 91%
    03:00 +13°C° 0 mm 5 mps 739 mmHg 89%
    04:00 +12°C° 0 mm 5 mps 739 mmHg 87%
    05:00 +10°C° 0 mm 5 mps 739 mmHg 85%
    06:00 +11°C° 0 mm 6 mps 740 mmHg 82%
    07:00 +12°C° 0 mm 7 mps 740 mmHg 78%
    08:00 +12°C° 0 mm 8 mps 740 mmHg 74%
    09:00 +13°C° 0 mm 8 mps 740 mmHg 70%
    10:00 +15°C° 0 mm 8 mps 740 mmHg 65%
    11:00 +16°C° 0 mm 9 mps 740 mmHg 61%
    12:00 +17°C° 0 mm 9 mps 740 mmHg 61%
    13:00 +18°C° 0 mm 9 mps 740 mmHg 61%
    14:00 +18°C° 0 mm 9 mps 740 mmHg 61%
    15:00 +18°C° 0.1 mm 8 mps 740 mmHg 62%
    16:00 +18°C° 0.1 mm 8 mps 740 mmHg 63%
    17:00 +18°C° 0.1 mm 7 mps 740 mmHg 64%
    18:00 +17°C° 0 mm 6 mps 740 mmHg 68%
    19:00 +15°C° 0 mm 5 mps 740 mmHg 72%
    20:00 +14°C° 0 mm 4 mps 740 mmHg 76%
    21:00 +14°C° 0.1 mm 4 mps 741 mmHg 78%
    22:00 +13°C° 0.1 mm 4 mps 741 mmHg 81%
    23:00 +12°C° 0.1 mm 4 mps 741 mmHg 83%

    29 June, Saturday

    Time Temperature Precipitation Wind Pressure Humidity
    00:00 +12°C° 0 mm 4 mps 741 mmHg 85%
    01:00 +11°C° 0 mm 4 mps 741 mmHg 88%
    02:00 +11°C° 0 mm 4 mps 741 mmHg 90%
    03:00 +9°C° 0 mm 5 mps 742 mmHg 90%
    04:00 +9°C° 0 mm 5 mps 742 mmHg 91%
    05:00 +8°C° 0 mm 5 mps 742 mmHg 91%
    06:00 +9°C° 0 mm 5 mps 742 mmHg 86%
    07:00 +10°C° 0 mm 5 mps 743 mmHg 81%
    08:00 +13°C° 0 mm 6 mps 743 mmHg 75%
    09:00 +14°C° 0 mm 6 mps 743 mmHg 71%
    10:00 +15°C° 0 mm 6 mps 743 mmHg 67%
    11:00 +16°C° 0 mm 7 mps 743 mmHg 62%
    12:00 +16°C° 0 mm 7 mps 743 mmHg 60%
    13:00 +16°C° 0 mm 7 mps 743 mmHg 57%
    14:00 +17°C° 0 mm 7 mps 743 mmHg 54%
    15:00 +17°C° 0 mm 6 mps 743 mmHg 59%
    16:00 +17°C° 0 mm 6 mps 743 mmHg 63%
    17:00 +17°C° 0 mm 6 mps 743 mmHg 67%
    18:00 +16°C° 0 mm 5 mps 743 mmHg 71%
    19:00 +15°C° 0 mm 4 mps 743 mmHg 75%
    20:00 +16°C° 0 mm 3 mps 743 mmHg 78%
    21:00 +14°C° 0.2 mm 3 mps 743 mmHg 83%
    22:00 +14°C° 0.2 mm 3 mps 743 mmHg 87%
    23:00 +13°C° 0.2 mm 3 mps 743 mmHg 91%

    30 June, Sunday

    Time Temperature Precipitation Wind Pressure Humidity
    00:00 +13°C° 0.1 mm 3 mps 743 mmHg 92%
    01:00 +13°C° 0.1 mm 3 mps 743 mmHg 92%
    02:00 +13°C° 0.1 mm 3 mps 743 mmHg 93%
    03:00 +13°C° 0 mm 3 mps 742 mmHg 91%
    04:00 +13°C° 0 mm 3 mps 742 mmHg 90%
    05:00 +13°C° 0 mm 4 mps 742 mmHg 89%
    06:00 +14°C° 0 mm 4 mps 742 mmHg 86%
    07:00 +17°C° 0 mm 4 mps 742 mmHg 84%
    08:00 +17°C° 0 mm 5 mps 742 mmHg 81%
    09:00 +19°C° 0 mm 5 mps 742 mmHg 76%
    10:00 +21°C° 0 mm 5 mps 742 mmHg 72%
    11:00 +22°C° 0 mm 5 mps 742 mmHg 67%
    12:00 +23°C° 0.1 mm 5 mps 742 mmHg 66%
    13:00 +25°C° 0.1 mm 5 mps 742 mmHg 66%
    14:00 +25°C° 0.1 mm 5 mps 742 mmHg 65%
    15:00 +25°C° 0.1 mm 5 mps 742 mmHg 66%
    16:00 +25°C° 0.1 mm 4 mps 742 mmHg 68%
    17:00 +26°C° 0.1 mm 4 mps 742 mmHg 69%
    18:00 +24°C° 0 mm 3 mps 742 mmHg 74%
    19:00 +22°C° 0 mm 3 mps 742 mmHg 79%
    20:00 +21°C° 0 mm 2 mps 742 mmHg 84%
    21:00 +20°C° 0 mm 3 mps 741 mmHg 84%
    22:00 +20°C° 0 mm 3 mps 741 mmHg 83%
    23:00 +19°C° 0 mm 3 mps 741 mmHg 83%
    Show more